Meteo Giornale » Osservazioni meteo Stati Uniti (USA) » Fortuna
ore: 00:30 - Osservazioni Meteo Fortuna
Lat. 40° 40' N Lon. 124° 14' W Alt. 122 metri s.l.m.
15 °C
Coperto
Temp. 24 Ore
12 °C
20 °C
Nord
0 Km/h
Dew point 15 °C
Umidità 100 %
Visibilità 14 Km
Il sole sorge alle ore 06:44
Il sole tramonta alle ore 19:49
| Data e Ora | Cielo e Fenomeni | T °C | DP °C | Um. % | Pres. hPa | Vis. km | Vento km/h | |
|---|---|---|---|---|---|---|---|---|
| Oggi h: 00:30 | Coperto | 15 | 15 | 100 | 1013 | 14 | N 0 | |
| Oggi h: 00:10 | Coperto | 15 | 15 | 100 | 1013 | 14 | N 0 | |
| Ieri h: 23:50 | Coperto | 15 | 15 | 100 | 1013 | 14 | N 0 | |
| Ieri h: 23:30 | Coperto | 15 | 15 | 100 | 1013 | 10 | N 0 | |
| Ieri h: 23:10 | Coperto | 14 | 14 | 100 | 1013 | 13 | N 0 | |
| Ieri h: 22:50 | Coperto | 14 | 14 | 100 | 1013 | 11 | N 0 | |
| Ieri h: 22:30 | Coperto | 14 | 14 | 100 | 1014 | 13 | N 0 | |
| Ieri h: 22:10 | Coperto | 14 | 14 | 100 | 1013 | 11 | N 0 | |
| Ieri h: 21:50 | Coperto | 14 | 14 | 100 | 1014 | 11 | N 0 | |
| Ieri h: 21:30 | Coperto | 15 | 14 | 93 | 1014 | 11 | N 0 | |
| Ieri h: 21:10 | Coperto | 15 | 15 | 100 | 1013 | 13 | NO 7.4 | |
| Ieri h: 20:50 | Coperto | 15 | 15 | 100 | 1013 | 13 | NO 7.4 | |
| Ieri h: 20:30 | Coperto | 15 | 15 | 100 | 1013 | 14 | O/NO 9.3 | |
| Ieri h: 20:10 | Coperto | 15 | 15 | 100 | 1013 | 14 | NO 11.1 | |
| Ieri h: 19:50 | Coperto | 15 | 15 | 100 | 1013 | 13 | O/NO 11.1 | |
| Ieri h: 19:30 | Coperto | 15 | 15 | 100 | 1013 | 13 | O/NO 11.1 | |
| Ieri h: 19:10 | Coperto | 16 | 15 | 93 | 1013 | 14 | N/NO 14.8 | |
| Ieri h: 18:50 | Molto Nuvoloso | 17 | 14 | 82 | 1013 | 14 | NO 13 | |
| Ieri h: 18:30 | Nuvoloso | 17 | 13 | 77 | 1012 | 10 | NO 13 | |
| Ieri h: 18:10 | Poco Nuvoloso | 18 | 13 | 72 | 1012 | 10 | NO 14.8 | |
| Ieri h: 17:50 | Nuvoloso | 18 | 13 | 72 | 1012 | 10 | N/NO 14.8 | |
| Ieri h: 17:30 | Molto Nuvoloso | 18 | 13 | 72 | 1012 | 10 | NO 14.8 | |
| Ieri h: 17:10 | Nuvoloso | 18 | 13 | 72 | 1012 | 10 | NO 13 | |
| Ieri h: 16:50 | Nuvoloso | 19 | 13 | 68 | 1012 | 10 | N/NO 18.5 | |
| Ieri h: 16:30 | Molto Nuvoloso | 19 | 14 | 72 | 1013 | 10 | N/NO 20.3 | |
| Ieri h: 16:10 | Molto Nuvoloso | 19 | 14 | 72 | 1013 | 10 | N/NO 20.3 | |
| Ieri h: 15:50 | Molto Nuvoloso | 19 | 14 | 72 | 1013 | 10 | NO 24 | |
| Ieri h: 15:30 | Molto Nuvoloso | 20 | 14 | 68 | 1013 | 10 | NO 22.2 | |
| Ieri h: 15:10 | Poco Nuvoloso | 20 | 14 | 68 | 1013 | 10 | O/NO 25.9 | |
| Ieri h: 14:50 | Nuvoloso | 20 | 14 | 68 | 1013 | 10 | NO 24 | |
| Ieri h: 14:30 | Molto Nuvoloso | 20 | 14 | 68 | 1013 | 10 | NO 24 | |
| Ieri h: 14:10 | Coperto | 19 | 14 | 72 | 1013 | 10 | NO 20.3 | |
| Ieri h: 13:50 | Molto Nuvoloso | 20 | 14 | 68 | 1013 | 10 | NO 20.3 | |
| Ieri h: 13:30 | Coperto | 20 | 14 | 68 | 1013 | 10 | N/NO 22.2 | |
| Ieri h: 13:10 | Coperto | 20 | 14 | 68 | 1013 | 10 | N/NO 20.3 | |
| Ieri h: 12:50 | Coperto | 19 | 14 | 72 | 1013 | 10 | NO 14.8 | |
| Ieri h: 12:30 | Coperto | 19 | 14 | 72 | 1014 | 10 | NO 16.7 | |
| Ieri h: 12:10 | Coperto | 18 | 14 | 77 | 1014 | 10 | O/NO 11.1 | |
| Ieri h: 11:50 | Coperto | 17 | 14 | 82 | 1014 | 10 | NO 11.1 | |
| Ieri h: 11:30 | Coperto | 17 | 14 | 82 | 1014 | 10 | O/NO 7.4 | |
| Ieri h: 11:10 | Coperto | 16 | 14 | 87 | 1014 | 10 | O/NO 7.4 | |
| Ieri h: 10:50 | Coperto | 15 | 14 | 93 | 1013 | 10 | N 0 | |
| Ieri h: 10:30 | Coperto | 15 | 14 | 93 | 1013 | 10 | S 7.4 | |
| Ieri h: 10:10 | Coperto | 14 | 14 | 100 | 1013 | 10 | E 7.4 | |
| Ieri h: 09:50 | Coperto | 14 | 14 | 100 | 1013 | 10 | E 7.4 | |
| Ieri h: 09:30 | Coperto | 14 | 13 | 93 | 1013 | 14 | E 9.3 | |
| Ieri h: 09:10 | Coperto | 13 | 13 | 100 | 1013 | 14 | E 9.3 | |
| Ieri h: 08:50 | Molto Nuvoloso | 13 | 13 | 100 | 1013 | 14 | E 9.3 | |
| Ieri h: 08:30 | Molto Nuvoloso | 13 | 12 | 93 | 1013 | 14 | E/SE 11.1 | |
| Ieri h: 08:10 | Molto Nuvoloso | 12 | 12 | 100 | 1013 | 13 | E/SE 13 | |
| Ieri h: 07:50 | Coperto | 12 | 12 | 100 | 1013 | 11 | E/SE 11.1 | |
| Ieri h: 07:30 | Coperto | 12 | 12 | 100 | 1012 | 8 | E/SE 9.3 | |
| Ieri h: 07:10 | Coperto | 12 | 12 | 100 | 1012 | 8 | E/SE 11.1 | |
| Ieri h: 06:50 | Coperto | 12 | 12 | 100 | 1012 | 8 | E/SE 9.3 | |
| Ieri h: 06:30 | Coperto | 12 | 12 | 100 | 1012 | 6 | E/SE 9.3 | |
| Ieri h: 06:10 | Coperto | 12 | 12 | 100 | 1012 | 8 | E/SE 9.3 | |
| Ieri h: 05:50 | Coperto | 12 | 12 | 100 | 1012 | 8 | E/SE 9.3 | |
| Ieri h: 05:30 | Coperto | 12 | 12 | 100 | 1012 | 11 | E/SE 9.3 | |
| Ieri h: 05:10 | Coperto | 12 | 12 | 100 | 1012 | 6 | E/SE 9.3 | |
| Ieri h: 04:50 | Coperto | 12 | 12 | 100 | 1012 | 8 | N 0 | |
| Ieri h: 04:30 | Coperto | 12 | 12 | 100 | 1012 | 8 | N 0 | |
| Ieri h: 04:10 | Coperto | 12 | 12 | 100 | 1012 | 8 | N 0 | |
| Ieri h: 03:50 | Coperto | 12 | 12 | 100 | 1012 | 10 | N 0 | |
| Ieri h: 03:30 | Coperto | 12 | 12 | 100 | 1012 | 8 | N 0 | |
| Ieri h: 03:10 | Coperto | 12 | 12 | 100 | 1012 | 8 | N 0 | |
| Ieri h: 02:50 | Coperto | 12 | 12 | 100 | 1012 | 8 | N 0 | |
| Ieri h: 02:30 | Coperto | 12 | 12 | 100 | 1012 | 14 | N 0 | |
| Ieri h: 02:10 | Coperto | 12 | 12 | 100 | 1012 | 14 | N 0 | |
| Ieri h: 01:50 | Coperto | 12 | 12 | 100 | 1013 | 13 | N 0 | |
| Ieri h: 01:30 | Coperto | 12 | 12 | 100 | 1013 | 14 | N 0 | |
| Ieri h: 01:10 | Coperto | 12 | 12 | 100 | 1013 | 10 | N 0 | |
| Ieri h: 00:50 | Coperto | 12 | 12 | 100 | 1013 | 10 | N 0 | |



